GW6020 Weather Reports


Display with metric or nautical units.
time (UTC)temp
F
wind
direction
speed
MPH
gust
MPH
rain 1hr
in
rain 24hr
in
rain mn
in
humidity
%
barometer
mb
20260510190511 67 221 1.0 4.0 0.00 0.46 0.00 68 1013.0
20260510190040 66 226 2.0 5.0 0.00 0.50 0.00 67 1013.1
20260510185512 66 247 2.0 5.0 0.00 0.52 0.00 68 1013.1
20260510185008 67 216 2.0 5.0 0.00 0.58 0.00 67 1013.0
20260510184509 67 224 0.0 7.0 0.00 0.65 0.00 69 1013.0
20260510184008 67 290 2.0 7.0 0.00 0.82 0.00 67 1013.0
20260510183507 67 264 1.0 3.0 0.00 0.96 0.00 67 1012.9
20260510183020 67 278 1.0 3.0 0.00 1.04 0.00 68 1013.0
20260510182510 67 229 1.0 6.0 0.00 1.04 0.00 68 1013.0
20260510182009 67 71 1.0 6.0 0.00 1.04 0.00 68 1013.0
20260510181520 68 236 1.0 4.0 0.00 1.04 0.00 67 1013.0
20260510181009 68 288 1.0 8.0 0.00 1.04 0.00 65 1013.0
20260510180508 68 337 2.0 8.0 0.00 1.04 0.00 65 1012.9
20260510180028 69 200 3.0 6.0 0.00 1.04 0.00 68 1013.0
20260510175509 69 305 3.0 5.0 0.00 1.04 0.00 70 1013.0
20260510175014 68 258 3.0 5.0 0.00 1.04 0.00 71 1012.9
20260510174527 68 112 1.0 6.0 0.00 1.04 0.00 73 1013.0
20260510174012 67 245 2.0 6.0 0.00 1.04 0.00 71 1013.1
20260510173505 67 39 1.0 8.0 0.00 1.04 0.00 73 1013.2
20260510173015 66 275 2.0 8.0 0.00 1.04 0.00 75 1013.2
20260510172506 66 277 2.0 8.0 0.00 1.04 0.00 76 1013.1
20260510172007 66 250 2.0 4.0 0.00 1.04 0.00 75 1013.1
20260510171518 66 214 1.0 8.0 0.00 1.04 0.00 73 1013.0
20260510171006 66 266 1.0 8.0 0.00 1.04 0.00 73 1012.9
20260510170507 66 172 0.0 6.0 0.00 1.04 0.00 76 1012.8
20260510170023 65 115 1.0 6.0 0.00 1.04 0.00 77 1012.9
20260510165514 65 70 1.0 4.0 0.00 1.04 0.00 76 1013.0
20260510165008 65 226 1.0 6.0 0.00 1.04 0.00 78 1013.0
20260510164531 65 243 0.0 7.0 0.00 1.04 0.00 80 1013.4
20260510164007 64 212 3.0 7.0 0.00 1.04 0.00 81 1013.4
20260510163510 63 301 2.0 6.0 0.00 1.04 0.00 81 1013.5
20260510163030 63 134 1.0 3.0 0.00 1.04 0.00 84 1013.4
20260510162512 62 168 1.0 6.0 0.00 1.04 0.00 83 1013.2
20260510162007 62 256 2.0 6.0 0.00 1.04 0.00 81 1013.4
20260510161518 63 243 3.0 6.0 0.00 1.04 0.00 83 1013.5
20260510161011 62 190 0.0 2.0 0.00 1.04 0.00 84 1013.4
20260510160506 61 215 0.0 3.0 0.00 1.04 0.00 86 1013.4
20260510160020 61 109 1.0 8.0 0.00 1.04 0.00 86 1013.4
20260510155513 61 246 4.0 8.0 0.00 1.04 0.00 83 1013.4
20260510155008 61 207 2.0 7.0 0.00 1.04 0.00 84 1013.3
20260510154540 61 277 1.0 6.0 0.00 1.04 0.00 85 1013.3
20260510154011 61 207 1.0 3.0 0.00 1.04 0.00 89 1013.5
20260510153508 59 73 1.0 7.0 0.00 1.04 0.00 89 1013.5
20260510153042 59 242 3.0 7.0 0.00 1.04 0.00 87 1013.7
20260510152510 59 210 0.0 6.0 0.00 1.04 0.00 89 1013.7
20260510152011 59 197 2.0 6.0 0.00 1.04 0.00 88 1013.8
20260510151529 58 225 1.0 6.0 0.00 1.04 0.00 88 1013.7
20260510151004 58 229 3.0 6.0 0.00 1.04 0.00 88 1013.7
20260510150507 58 245 1.0 6.0 0.00 1.04 0.00 88 1013.7
20260510150022 59 225 1.0 5.0 0.00 1.04 0.00 89 1013.7
20260510145508 58 245 1.0 4.0 0.00 1.04 0.00 89 1013.8
20260510145007 58 210 0.0 4.0 0.00 1.04 0.00 89 1013.8
20260510144542 58 267 2.0 4.0 0.00 1.04 0.00 88 1013.7
20260510144007 58 115 0.0 2.0 0.00 1.04 0.00 89 1013.5
20260510143508 58 86 0.0 3.0 0.00 1.04 0.00 92 1013.5
20260510143028 57 221 0.0 4.0 0.00 1.04 0.00 90 1013.4
20260510142516 57 360 1.0 4.0 0.00 1.04 0.00 90 1013.5
20260510142009 57 295 0.0 3.0 0.00 1.04 0.00 92 1013.5
20260510141526 57 360 0.0 3.0 0.00 1.04 0.00 93 1013.5
20260510141011 56 139 0.0 3.0 0.00 1.04 0.00 93 1013.4
20260510140509 55 285 0.0 3.0 0.00 1.04 0.00 93 1013.5
20260510140018 55 233 1.0 3.0 0.00 1.04 0.00 95 1013.5
20260510135507 55 276 0.0 2.0 0.00 1.04 0.00 95 1013.5
20260510135008 55 195 0.0 2.0 0.00 1.04 0.00 96 1013.4
20260510134522 54 122 0.0 2.0 0.00 1.04 0.00 96 1013.3
20260510134009 54 122 0.0 2.0 0.00 1.04 0.00 95 1013.3
20260510133507 54 130 0.0 0.0 0.00 1.04 0.00 95 1013.2
20260510133029 54 191 0.0 2.0 0.00 1.04 0.00 96 1013.2
20260510132510 54 150 0.0 1.0 0.00 1.04 0.00 96 1013.1
20260510132013 54 216 0.0 0.0 0.00 1.04 0.00 96 1013.0
20260510131528 53 122 0.0 0.0 0.00 1.04 0.00 96 1013.0
20260510131008 53 106 0.0 0.0 0.00 1.04 0.00 96 1013.0
20260510130504 53 224 0.0 0.0 0.00 1.04 0.00 96 1013.1
20260510130014 53 224 0.0 0.0 0.00 1.04 0.00 96 1013.1
20260510125508 53 224 0.0 0.0 0.00 1.04 0.00 96 1013.2
20260510125008 53 238 0.0 0.0 0.00 1.04 0.00 96 1013.1
20260510124521 52 228 0.0 0.0 0.00 1.04 0.00 96 1013.1
20260510124012 52 243 0.0 0.0 0.00 1.04 0.00 96 1013.0
20260510123510 52 253 0.0 2.0 0.00 1.04 0.00 96 1012.9
20260510123019 52 221 0.0 2.0 0.00 1.04 0.00 96 1013.0
20260510122504 52 210 0.0 3.0 0.00 1.04 0.00 96 1012.9
20260510122007 52 211 0.0 3.0 0.00 1.04 0.00 96 1012.8
20260510121519 52 172 1.0 3.0 0.00 1.04 0.00 96 1012.8
20260510121003 52 275 0.0 3.0 0.00 1.04 0.00 96 1012.8
20260510120505 52 205 1.0 2.0 0.00 1.04 0.00 96 1012.8
20260510120015 51 198 0.0 3.0 0.00 1.04 0.00 96 1012.7
20260510115506 51 210 1.0 3.0 0.00 1.04 0.00 96 1012.7
20260510115007 51 227 0.0 2.0 0.00 1.04 0.00 96 1012.6
20260510114516 51 257 0.0 2.0 0.00 1.04 0.00 96 1012.5
20260510114009 51 257 0.0 2.0 0.00 1.04 0.00 96 1012.5
20260510113508 51 257 0.0 2.0 0.00 1.04 0.00 96 1012.4
20260510113022 51 257 0.0 3.0 0.00 1.04 0.00 96 1012.3
20260510112505 51 234 1.0 3.0 0.00 1.04 0.00 96 1012.2
20260510112009 51 219 0.0 0.0 0.00 1.04 0.00 96 1012.1
20260510111522 50 215 0.0 0.0 0.00 1.04 0.00 96 1012.2
20260510111013 50 153 0.0 0.0 0.00 1.04 0.00 96 1012.2
20260510110507 50 155 0.0 0.0 0.00 1.04 0.00 96 1012.1
20260510110022 50 155 0.0 0.0 0.00 1.04 0.00 96 1012.2
20260510105508 50 155 0.0 0.0 0.00 1.04 0.00 96 1012.4
20260510105005 50 155 0.0 0.0 0.00 1.04 0.00 96 1012.2
20260510104517 50 155 0.0 0.0 0.00 1.04 0.00 96 1012.2
20260510104004 50 155 0.0 2.0 0.00 1.04 0.00 96 1012.1
20260510103507 50 227 0.0 2.0 0.00 1.04 0.00 96 1012.0
20260510103018 50 155 0.0 3.0 0.00 1.04 0.00 96 1011.9
20260510102507 50 139 0.0 3.0 0.00 1.04 0.00 96 1011.8
20260510102010 50 220 0.0 2.0 0.00 1.04 0.00 96 1011.8
20260510101521 50 174 0.0 3.0 0.00 1.04 0.00 96 1011.8
20260510101014 50 219 1.0 3.0 0.00 1.04 0.00 96 1011.8
20260510100505 49 219 0.0 2.0 0.00 1.04 0.00 96 1011.8
20260510100008 49 238 0.0 2.0 0.00 1.04 0.00 96 1011.8
20260510095505 49 145 0.0 2.0 0.00 1.04 0.00 96 1011.9
20260510095007 49 74 0.0 2.0 0.00 1.04 0.00 96 1011.7
20260510094514 49 122 0.0 2.0 0.00 1.04 0.00 96 1011.7
20260510094003 49 126 0.0 0.0 0.00 1.04 0.00 96 1011.9
20260510093506 49 121 0.0 0.0 0.00 1.04 0.00 96 1012.0
20260510093018 49 161 0.0 0.0 0.00 1.04 0.00 96 1012.1
20260510092507 49 180 0.0 0.0 0.00 1.04 0.00 95 1012.1
20260510092008 49 180 0.0 0.0 0.00 1.04 0.00 95 1012.2
20260510091527 49 155 0.0 0.0 0.00 1.04 0.00 95 1012.1
20260510091009 49 206 0.0 0.0 0.00 1.04 0.00 95 1012.1
20260510090510 49 206 0.0 0.0 0.00 1.04 0.00 96 1012.3
20260510090024 50 207 0.0 0.0 0.00 1.04 0.00 96 1012.2
20260510085505 50 216 0.0 0.0 0.00 1.04 0.00 96 1012.3
20260510085004 50 216 0.0 0.0 0.00 1.04 0.00 96 1012.2
20260510084525 50 216 0.0 0.0 0.00 1.04 0.00 96 1012.3
20260510084005 50 238 0.0 0.0 0.00 1.04 0.00 96 1012.3
20260510083505 50 238 0.0 0.0 0.00 1.04 0.00 96 1012.4
20260510083016 50 238 0.0 0.0 0.00 1.04 0.00 96 1012.5
20260510082507 50 2 0.0 0.0 0.00 1.04 0.00 96 1012.5
20260510082008 50 2 0.0 0.0 0.00 1.04 0.00 96 1012.4
20260510081529 50 281 0.0 2.0 0.00 1.04 0.00 96 1012.4
20260510081008 50 281 0.0 2.0 0.00 1.04 0.00 96 1012.4
20260510080508 50 3 0.0 0.0 0.00 1.04 0.00 96 1012.2
20260510080025 50 4 0.0 0.0 0.00 1.04 0.00 96 1012.1
20260510075508 50 4 0.0 0.0 0.00 1.05 0.00 96 1012.1
20260510075012 50 4 0.0 0.0 0.00 1.07 0.00 96 1011.9
20260510074525 50 241 0.0 0.0 0.00 1.07 0.00 96 1011.6
20260510074004 50 269 0.0 0.0 0.00 1.07 0.00 96 1011.6
20260510073504 50 269 0.0 0.0 0.00 1.07 0.00 96 1011.6
20260510073012 50 269 0.0 3.0 0.00 1.07 0.00 96 1011.5
20260510072504 50 269 0.0 3.0 0.00 1.07 0.00 96 1011.6
20260510072005 50 271 0.0 0.0 0.00 1.07 0.00 96 1011.6
20260510071518 50 210 0.0 0.0 0.00 1.07 0.00 96 1011.6
20260510071007 50 246 0.0 0.0 0.00 1.07 0.00 96 1011.6
20260510070507 50 224 0.0 0.0 0.00 1.07 0.00 96 1011.6
20260510070024 50 224 0.0 0.0 0.00 1.07 0.00 96 1011.8
20260510065512 50 224 0.0 0.0 0.00 1.07 0.00 96 1011.8
20260510065011 50 224 0.0 0.0 0.00 1.07 0.00 96 1011.9
20260510064526 50 224 0.0 0.0 0.00 1.07 0.00 96 1011.9
20260510064010 50 224 0.0 0.0 0.00 1.07 0.00 96 1011.9
20260510063506 50 224 0.0 0.0 0.00 1.07 0.00 96 1011.9
20260510063013 50 224 0.0 0.0 0.00 1.07 0.00 96 1011.9
20260510062504 50 224 0.0 0.0 0.00 1.07 0.00 96 1011.8
20260510062007 50 224 0.0 0.0 0.00 1.07 0.00 96 1011.7
20260510061515 50 224 0.0 0.0 0.00 1.07 0.00 96 1011.7
20260510061006 50 224 0.0 0.0 0.00 1.07 0.00 96 1011.6
20260510060506 50 224 0.0 0.0 0.00 1.07 0.00 96 1011.4
20260510060034 50 224 0.0 0.0 0.00 1.07 0.00 96 1011.3
20260510055507 50 224 0.0 0.0 0.00 1.07 0.00 96 1011.3
20260510055008 50 224 0.0 0.0 0.00 1.07 0.00 96 1011.3
20260510054524 50 224 0.0 0.0 0.00 1.07 0.00 96 1011.4
20260510054008 50 224 0.0 0.0 0.00 1.07 0.00 96 1011.4
20260510053509 50 224 0.0 0.0 0.00 1.07 0.00 96 1011.5
20260510053026 50 224 0.0 0.0 0.00 1.07 0.00 96 1011.6
20260510052508 50 219 0.0 0.0 0.00 1.07 0.00 96 1011.7
20260510052009 50 262 0.0 0.0 0.00 1.07 0.00 96 1011.7
20260510051512 50 262 0.0 0.0 0.00 1.07 0.00 96 1011.7
20260510051008 50 262 0.0 0.0 0.00 1.07 0.00 96 1011.7
20260510050503 50 262 0.0 0.0 0.00 1.07 0.00 96 1011.7
20260510050020 50 262 0.0 0.0 0.00 1.07 0.00 96 1011.7
20260510045504 50 262 0.0 0.0 0.00 1.07 0.00 96 1011.7
20260510045010 50 262 0.0 0.0 0.00 1.07 0.00 95 1011.6
20260510044523 50 262 0.0 0.0 0.00 1.07 0.00 95 1011.7
20260510044008 50 226 0.0 0.0 0.00 1.07 0.00 95 1011.7
20260510043507 50 255 0.0 0.0 0.00 1.07 0.00 95 1011.6
20260510043027 50 259 0.0 0.0 0.00 1.07 0.00 95 1011.6
20260510042511 50 259 0.0 0.0 0.00 1.07 0.00 96 1011.6
20260510042011 50 269 0.0 0.0 0.00 1.07 0.00 96 1011.6
20260510041533 50 214 0.0 0.0 0.00 1.07 0.00 96 1011.6
20260510041011 50 214 0.0 0.0 0.00 1.07 0.00 96 1011.5
20260510040504 50 214 0.0 0.0 0.00 1.07 0.00 96 1011.4
20260510040017 50 214 0.0 0.0 0.00 1.07 0.00 96 1011.4
20260510035507 50 169 0.0 0.0 0.00 1.07 1.07 96 1011.3
20260510035007 50 169 0.0 0.0 0.00 1.07 1.07 96 1011.3
20260510034524 50 228 0.0 0.0 0.00 1.07 1.07 96 1011.2
20260510034009 50 196 0.0 0.0 0.00 1.07 1.07 96 1011.2
20260510033512 50 196 0.0 0.0 0.00 1.07 1.07 96 1011.4
20260510033026 50 196 0.0 0.0 0.00 1.07 1.07 96 1011.4
20260510032508 50 196 0.0 0.0 0.00 1.07 1.07 96 1011.4
20260510032009 50 196 0.0 0.0 0.00 1.07 1.07 95 1011.4
20260510031525 50 115 0.0 0.0 0.00 1.07 1.07 95 1011.4
20260510031009 50 89 0.0 0.0 0.00 1.07 1.07 95 1011.5
20260510030510 50 148 0.0 0.0 0.00 1.07 1.07 95 1011.6
20260510030035 50 129 0.0 2.0 0.00 1.07 1.07 95 1011.6
20260510025509 50 217 0.0 2.0 0.00 1.07 1.07 95 1011.7
20260510025007 51 263 0.0 1.0 0.00 1.07 1.07 95 1011.7
20260510024528 51 179 0.0 1.0 0.00 1.07 1.07 95 1011.6
20260510024007 51 191 0.0 0.0 0.00 1.07 1.07 95 1011.6
20260510023505 51 200 0.0 0.0 0.00 1.07 1.07 95 1011.6
20260510023022 51 134 0.0 0.0 0.00 1.07 1.07 95 1011.6
20260510022508 51 192 0.0 2.0 0.00 1.07 1.07 96 1011.6
20260510022012 51 196 0.0 2.0 0.00 1.07 1.07 96 1011.5
20260510021531 50 193 0.0 0.0 0.00 1.07 1.07 95 1011.5
20260510021009 50 158 0.0 0.0 0.00 1.07 1.07 95 1011.3
20260510020508 50 190 0.0 0.0 0.00 1.07 1.07 95 1011.4
20260510020028 50 172 0.0 0.0 0.00 1.07 1.07 94 1011.5
20260510015512 50 225 0.0 0.0 0.00 1.07 1.07 94 1011.4
20260510015010 50 225 0.0 0.0 0.00 1.07 1.07 94 1011.4
20260510014528 50 225 0.0 0.0 0.00 1.07 1.07 94 1011.4
20260510014005 51 225 0.0 0.0 0.00 1.07 1.07 95 1011.4
20260510013504 51 225 0.0 0.0 0.00 1.07 1.07 95 1011.3
20260510013024 51 225 0.0 0.0 0.00 1.07 1.07 95 1011.4
20260510012505 51 225 0.0 3.0 0.00 1.07 1.07 95 1011.4
20260510012010 51 225 0.0 3.0 0.00 1.07 1.07 95 1011.4
20260510011524 51 256 0.0 0.0 0.00 1.07 1.07 95 1011.3
20260510011005 51 206 0.0 1.0 0.00 1.07 1.07 95 1011.1
20260510010502 51 204 0.0 2.0 0.00 1.07 1.07 95 1011.0
20260510010008 51 243 0.0 2.0 0.00 1.07 1.07 95 1011.0
20260510005505 51 93 0.0 5.0 0.00 1.07 1.07 95 1010.9
20260510005006 51 176 0.0 5.0 0.00 1.07 1.07 95 1010.9
20260510004514 51 100 0.0 5.0 0.00 1.07 1.07 94 1010.9
20260510004005 51 106 0.0 2.0 0.00 1.07 1.07 94 1010.9
20260510003505 51 113 0.0 2.0 0.00 1.07 1.07 94 1010.8
20260510003022 51 205 0.0 2.0 0.00 1.07 1.07 94 1010.9
20260510002505 52 156 0.0 2.0 0.00 1.07 1.07 94 1010.8
20260510002012 52 235 0.0 2.0 0.01 1.07 1.07 94 1010.7
20260510001523 52 101 0.0 2.0 0.01 1.07 1.07 94 1010.6
20260510001001 52 159 0.0 2.0 0.01 1.07 1.07 94 1010.6
20260510000501 52 115 0.0 0.0 0.01 1.07 1.07 94 1010.6
20260510000007 52 139 0.0 0.0 0.01 1.07 1.07 94 1010.6
20260509235504 53 136 0.0 0.0 0.01 1.07 1.07 94 1010.8
20260509235002 53 177 0.0 0.0 0.01 1.07 1.07 95 1010.9
20260509234513 53 141 0.0 0.0 0.01 1.07 1.07 95 1011.0
20260509234005 53 142 0.0 0.0 0.02 1.07 1.07 95 1011.0
20260509233504 53 134 0.0 0.0 0.03 1.07 1.07 95 1011.0
20260509233016 53 134 0.0 0.0 0.05 1.07 1.07 94 1011.0
20260509232507 53 103 0.0 0.0 0.08 1.07 1.07 94 1011.0
20260509232008 53 103 0.0 0.0 0.09 1.05 1.05 94 1011.0
20260509231519 52 215 0.0 0.0 0.11 1.05 1.05 94 1011.0
20260509231007 52 281 0.0 0.0 0.13 1.05 1.05 94 1011.1
20260509230513 52 300 0.0 0.0 0.15 1.05 1.05 94 1011.1
20260509230024 52 300 0.0 0.0 0.17 1.05 1.05 94 1011.1
20260509225504 52 300 0.0 0.0 0.18 1.05 1.05 94 1011.1
20260509225003 52 300 0.0 0.0 0.19 1.05 1.05 1011.1
20260509224507 52 300 0.0 0.0 0.20 1.05 1.05 93 1011.2
20260509224004 53 101 0.0 0.0 0.20 1.04 1.04 93 1011.0
20260509223504 53 130 0.0 0.0 0.19 1.04 1.04 93 1011.0
20260509223016 53 81 0.0 0.0 0.18 1.02 1.02 93 1011.1
20260509222503 53 125 0.0 0.0 0.15 0.99 0.99 93 1011.4
20260509222004 53 171 0.0 0.0 0.14 0.97 0.97 93 1011.6
20260509221518 53 171 0.0 0.0 0.14 0.95 0.95 93 1011.7
20260509221007 53 158 0.0 0.0 0.13 0.93 0.93 93 1011.5
20260509220508 53 158 0.0 0.0 0.12 0.91 0.91 93 1011.5
20260509220020 53 162 0.0 0.0 0.10 0.89 0.89 93 1011.5
20260509215511 53 161 0.0 0.0 0.09 0.88 0.88 92 1011.6
20260509215007 53 174 0.0 0.0 0.09 0.87 0.87 92 1011.6
20260509214506 53 174 0.0 0.0 0.08 0.86 0.86 91 1011.8
20260509214005 53 209 0.0 0.0 0.07 0.85 0.85 91 1011.9
20260509213503 53 293 0.0 0.0 0.07 0.85 0.85 91 1011.8
20260509213012 53 231 0.0 1.0 0.06 0.84 0.84 92 1011.8
20260509212503 54 262 0.0 1.0 0.06 0.84 0.84 92 1011.8
20260509212006 54 224 0.0 0.0 0.05 0.83 0.83 93 1012.0
20260509211516 54 268 0.0 0.0 0.04 0.81 0.81 93 1011.9
20260509211004 54 268 0.0 0.0 0.03 0.80 0.80 93 1011.7
20260509210507 54 268 0.0 0.0 0.03 0.79 0.79 93 1011.7
20260509210026 54 225 0.0 0.0 0.04 0.79 0.79 93 1011.8
20260509205508 54 225 0.0 1.0 0.04 0.79 0.79 92 1011.6
20260509205007 54 247 0.0 1.0 0.04 0.78 0.78 92 1011.6
20260509204525 54 274 0.0 0.0 0.05 0.78 0.78 92 1011.7
20260509204008 55 274 0.0 0.0 0.05 0.78 0.78 93 1011.6
20260509203503 55 266 0.0 0.0 0.06 0.78 0.78 93 1011.5
20260509203008 55 259 0.0 0.0 0.07 0.78 0.78 93 1011.4
20260509202504 55 283 0.0 0.0 0.08 0.78 0.78 93 1011.3
20260509202006 55 67 0.0 0.0 0.12 0.78 0.78 93 1011.2
20260509201512 55 257 0.0 0.0 0.13 0.77 0.77 93 1011.7
20260509201003 55 257 0.0 0.0 0.14 0.77 0.77 93 1011.9
20260509200508 55 280 0.0 0.0 0.15 0.76 0.76 93 1011.7
20260509200020 55 307 0.0 0.0 0.18 0.75 0.75 93 1011.7
20260509195509 55 307 0.0 2.0 0.21 0.75 0.75 93 1011.7
20260509195008 54 248 0.0 3.0 0.25 0.74 0.74 93 1011.8
20260509194528 54 215 0.0 4.0 0.31 0.73 0.73 92 1012.0
20260509194010 54 240 1.0 4.0 0.49 0.73 0.73 92 1011.9
20260509193512 54 266 2.0 4.0 0.61 0.72 0.72 92 1012.0
20260509193026 55 231 0.0 2.0 0.68 0.71 0.71 92 1011.8
20260509192510 55 38 0.0 0.0 0.67 0.70 0.70 92 1011.9
20260509192004 55 267 0.0 0.0 0.63 0.66 0.66 91 1012.0
20260509191511 55 238 0.0 0.0 0.61 0.64 0.64 91 1012.0
20260509191006 55 198 0.0 0.0 0.60 0.63 0.63 91 1011.8